Flag for Germany Weather past 2 weeks in Brandenburg an der Havel, Brandenburg, Germany

Now
67 °F

Overcast.


Feels Like: 67 °F
Forecast: 50 / 66 °F
Wind: 3 mph from South

Location: Potsdam

Current Time: Apr 25, 2015 at 11:49:49 AM

Latest Report: Apr 25, 2015 at 11:00 AM


Visibility: 18 mi

Pressure: 29.78 "Hg

Humidity: 36%

Dew point: 39 °F

Location of Brandenburg an der HavelLocation

Historic Weather in Brandenburg an der Havel — Graph

°F

Brandenburg an der Havel temperature yesterday

Maximum temperature yesterday: 70 °F (at 3:00 PM)
Minimum temperature yesterday: 42 °F (at 7:00 AM)
Average temperature yesterday: 56 °F

Past Weeks' High & Low Weather Summary

 TemperatureHumidityPressure
High73 °F (Apr 11, 3:00 PM)100% (Apr 18, 5:00 AM)30.42 "Hg (Apr 18, 5:00 AM)
Low33 °F (Apr 18, 7:00 AM)19% (Apr 21, 4:00 PM)29.80 "Hg (Apr 25, 10:00 AM)
Average52 °F59%30.13 "Hg
* Reported Apr 10 10:00 AM — Apr 25 10:00 AM, Brandenburg an der Havel, Weather by CustomWeather, © 2015

Note: Actual official high and low records may vary slightly from our data, if they occured in-between our weather recording intervals... More about our weather records

Advertising

Brandenburg an der Havel weather history for previous 24 hours

 ConditionsComfort  
Time TempWeatherWind HumidityBarometerVisibility
10:00 AM
Sat, Apr 25
62 °FOvercast.3 mph41%29.80 "Hg18 mi
9:00 AM57 °FOvercast.3 mph50%29.80 "Hg17 mi
8:00 AM51 °FPartly sunny.5 mph63%29.80 "Hg17 mi
7:00 AM50 °FScattered clouds.6 mph64%29.80 "Hg17 mi
6:00 AM49 °FPassing clouds.7 mph64%29.80 "Hg16 mi
5:00 AM49 °FPassing clouds.7 mph65%29.81 "Hg22 mi
3:00 AM51 °FPassing clouds.6 mph61%29.82 "Hg22 mi
1:00 AM54 °FPassing clouds.7 mph54%29.83 "Hg22 mi
12:00 AM56 °FPassing clouds.6 mph50%29.83 "Hg22 mi
11:00 PM
Fri, Apr 24
56 °FClear.6 mph50%29.84 "Hg19 mi
10:00 PM57 °FPassing clouds.6 mph49%29.84 "Hg16 mi
9:00 PM60 °FPassing clouds.5 mph44%29.84 "Hg16 mi
8:00 PM64 °FPartly sunny.3 mph39%29.84 "Hg16 mi
7:00 PM67 °FPartly sunny.3 mph34%29.84 "Hg14 mi
6:00 PM68 °FPartly sunny.3 mph32%29.84 "Hg14 mi
5:00 PM69 °FPartly sunny.5 mph32%29.85 "Hg14 mi
4:00 PM69 °FPassing clouds.7 mph29%29.87 "Hg14 mi
3:00 PM70 °FPassing clouds.7 mph31%29.88 "Hg12 mi
2:00 PM68 °FPassing clouds.6 mph33%29.89 "Hg12 mi
1:00 PM67 °FPassing clouds.5 mph37%29.91 "Hg11 mi
12:00 PM62 °FPassing clouds.3 mph48%29.94 "Hg9 mi
11:00 AM60 °FPassing clouds.3 mph53%29.95 "Hg11 mi
Weather by CustomWeather, © 2015

See weather overviewHow to use our weather pages